TimeCDT,TemperatureF,Dew PointF,Humidity,Sea Level PressureIn,VisibilityMPH,Wind Direction,Wind SpeedMPH,Gust SpeedMPH,PrecipitationIn,Events,Conditions,WindDirDegrees,DateUTC
12:52 AM,64.9,50.0,58,29.90,10.0,Calm,Calm,-,N/A,,Clear,0,2013-09-22 05:52:00
1:52 AM,64.0,50.0,60,29.89,10.0,Calm,Calm,-,N/A,,Clear,0,2013-09-22 06:52:00
2:52 AM,62.1,50.0,65,29.89,10.0,Calm,Calm,-,N/A,,Clear,0,2013-09-22 07:52:00
3:52 AM,61.0,48.9,64,29.88,10.0,Calm,Calm,-,N/A,,Clear,0,2013-09-22 08:52:00
4:52 AM,60.1,50.0,69,29.88,10.0,Calm,Calm,-,N/A,,Clear,0,2013-09-22 09:52:00
5:52 AM,57.9,50.0,75,29.88,10.0,Calm,Calm,-,N/A,,Clear,0,2013-09-22 10:52:00
6:52 AM,55.0,50.0,83,29.89,10.0,NNE,4.6,-,N/A,,Clear,30,2013-09-22 11:52:00
7:52 AM,55.9,50.0,80,29.90,10.0,NNE,3.5,-,N/A,,Clear,30,2013-09-22 12:52:00
8:52 AM,61.0,53.1,75,29.92,10.0,ENE,3.5,-,N/A,,Clear,70,2013-09-22 13:52:00
9:52 AM,64.9,54.0,68,29.92,10.0,ESE,5.8,-,N/A,,Clear,110,2013-09-22 14:52:00
10:52 AM,73.0,52.0,48,29.92,10.0,SSE,8.1,-,N/A,,Clear,150,2013-09-22 15:52:00
11:52 AM,77.0,48.9,37,29.90,10.0,SSE,8.1,-,N/A,,Clear,150,2013-09-22 16:52:00
12:52 PM,80.1,46.0,30,29.88,10.0,SSE,8.1,-,N/A,,Clear,160,2013-09-22 17:52:00
1:52 PM,82.0,46.0,28,29.86,10.0,Variable,5.8,-,N/A,,Clear,0,2013-09-22 18:52:00
2:52 PM,84.0,46.9,27,29.83,10.0,East,6.9,-,N/A,,Clear,100,2013-09-22 19:52:00
3:52 PM,82.9,45.0,26,29.81,10.0,ESE,8.1,-,N/A,,Clear,110,2013-09-22 20:52:00
4:52 PM,84.0,43.0,24,29.78,10.0,SSE,9.2,-,N/A,,Clear,150,2013-09-22 21:52:00
5:52 PM,82.9,44.1,25,29.77,10.0,SSE,10.4,-,N/A,,Clear,150,2013-09-22 22:52:00
6:52 PM,80.1,46.0,30,29.77,10.0,SE,8.1,-,N/A,,Clear,140,2013-09-22 23:52:00
7:52 PM,73.0,51.1,46,29.77,10.0,SE,8.1,-,N/A,,Clear,130,2013-09-23 00:52:00
8:52 PM,69.1,52.0,54,29.79,10.0,SE,8.1,-,N/A,,Clear,140,2013-09-23 01:52:00
9:52 PM,69.1,51.1,53,29.80,10.0,SSE,11.5,-,N/A,,Clear,150,2013-09-23 02:52:00
10:52 PM,66.9,51.1,57,29.81,10.0,SSE,10.4,-,N/A,,Clear,150,2013-09-23 03:52:00
11:52 PM,64.9,51.1,61,29.81,10.0,SSE,10.4,-,N/A,,Clear,150,2013-09-23 04:52:00